Location: Kalberh�ni
(46.4610°N, 7.2453°E)
Time: 14:00:15
(UTC+00:00)

Lacrosse 4 Rocket - Pass Details

Date: 22 October 2021
Orbit: 537 x 619 km, 68.0° (Epoch: 04 December)

Event Time Altitude Azimuth Distance (km) Brightness Sun altitude
Rises 18:56:59 0° 322° (NW) 2,813 5.6 -25.6°
Reaches altitude 10° 18:59:18 10° 315° (NW) 1,923 4.8 -26.0°
Maximum altitude 19:03:21 40° 246° (WSW) 892 2.7 -26.7°
Enters shadow 19:04:09 36° 219° (SW) 957 2.6 -26.8°
